Location: *
(63.9400°N, 135.1760°W)
Time: 02:00:13
(UTC+00:00)

Daily predictions for brighter satellites

Satellite Brightness Start Highest point End
(mag) Time Altitude Azimuth Time Altitude Azimuth Time Altitude Azimuth
PSLV R/B 4.0 00:34:52 10° NNE 00:39:01 82° WNW 00:43:06 10° SSW
Cosmos 1515 Rocket 3.6 00:34:55 10° S 00:39:14 69° ESE 00:43:39 10° NNE
Cosmos 1814 Rocket 4.1 00:34:08 10° NW 00:39:32 80° NE 00:44:55 10° SE
Meteor 2-2 Rocket 4.4 00:33:57 10° SSW 00:39:42 86° ESE 00:45:38 10° NNE
ATLAS 3B R/B 3.3 00:33:22 10° SSW 00:40:14 50° SE 00:46:48 10° ENE
Lacrosse 5 3.7 00:38:20 10° SSW 00:42:01 21° SE 00:45:43 10° E
Aureole 1 Rocket 4.3 00:40:08 10° NW 00:42:08 16° N 00:44:17 10° NE
COSMOS 2487 3.7 00:40:15 10° NNW 00:43:12 24° NNE 00:46:08 10° E
H-2A R/B 4.4 00:43:07 10° N 00:44:40 12° NNW 00:46:13 10° NW
Cosmos 540 Rocket 3.6 00:39:49 10° NW 00:44:56 52° NE 00:50:00 10° ESE
Cosmos 1328 Rocket 3.6 00:40:55 10° SSW 00:45:14 88° WNW 00:49:37 10° NNE
SL-08 R/B 3.4 00:40:44 10° NNE 00:45:28 82° WNW 00:50:16 10° SSW
Cosmos 1605 Rocket 4.1 00:39:49 10° S 00:46:01 73° E 00:52:20 10° NNE
UNK 3.8 00:41:43 10° NNE 00:46:21 86° ESE 00:50:57 10° SSW
APEX 4.2 00:42:55 10° WNW 00:46:27 36° N 00:50:53 10° ENE
Okean O Rocket 3.4 00:43:02 10° SSW 00:47:07 35° W 00:51:16 10° NNW
Cosmos 2228 Rocket 3.2 00:43:27 10° SSW 00:47:59 84° ESE 00:52:32 10° NNE
USA 238 DEB 4.3 00:41:30 10° SSW 00:48:09 50° SE 00:54:53 10° ENE
USA 238 4.3 00:41:37 10° SSW 00:48:15 49° SE 00:54:59 10° ENE
CZ-4B R/B 3.5 00:46:05 10° N 00:48:23 19° NW 00:50:40 10° W
Cosmos 1459 Rocket 4.4 00:42:39 10° SSE 00:48:32 43° E 00:54:23 10° NNE
Cosmos 44 3.3 00:44:31 10° WNW 00:49:00 78° SSW 00:53:42 10° ESE
Cosmos 1825 2.6 00:45:59 10° NNW 00:49:47 67° W 00:53:34 10° S
Cosmos 1484 Rocket 3.5 00:46:20 10° ESE 00:49:53 33° ENE 00:53:31 10° N
Cosmos 2297 Rocket 2.6 00:44:54 10° WSW 00:50:30 58° NNW 00:56:07 10° NE
CZ-4 R/B 2.1 00:48:56 10° ESE 00:52:16 29° NE 00:55:39 10° N
Cosmos 1934 Rocket 4.1 00:46:06 10° SSW 00:52:19 85° WNW 00:58:29 10° NNE
Cosmos 2082 Rocket 2.2 00:47:01 10° NW 00:52:46 72° NE 00:58:28 10° ESE
Cosmos 1862 3.3 00:50:13 10° NNW 00:54:16 79° ENE 00:58:18 10° SSE
ADEOS II 4.5 00:50:19 10° SW 00:54:29 23° W 00:58:40 10° NNW
Meteor 1-31 Rocket 4.2 00:51:56 10° S 00:55:36 42° W 00:59:18 10° NNW
Sich 1 Rocket 4.3 00:52:38 10° N 00:56:37 31° ENE 01:00:35 10° ESE
Cosmos 1340 4.2 00:54:34 10° SE 00:57:11 18° E 00:59:48 10° NE
USA 32 4.3 00:51:56 10° NNW 00:57:13 77° W 01:02:29 10° S
Cosmos 841 Rocket 3.5 00:52:54 10° NW 00:58:14 79° NE 01:03:33 10° SE
GP-B 3.4 00:53:58 10° N 00:58:25 71° W 01:02:51 10° SSW
Meteor 1-20 Rocket 4.5 00:55:41 10° NNW 01:01:07 45° NE 01:06:27 10° SE
IRAS Rocket 4.2 00:55:59 10° SE 01:01:30 72° ENE 01:06:59 10° NNW
CSL-04 Rocket 3.7 00:57:05 10° SE 01:02:20 60° ENE 01:07:42 10° NNW
Cosmos 1455 2.1 00:59:36 10° SSW 01:03:23 84° ESE 01:07:11 10° NNE
Meteor 1-25 Rocket 4.5 00:58:31 10° NNW 01:04:14 51° ENE 01:09:56 10° SE
Cosmos 2251 Rocket 4.3 01:00:39 10° WSW 01:05:51 47° NW 01:11:05 10° NE
ATLAS CENTAUR R/B 1.1 01:02:29 10° WSW 01:06:10 84° SSE 01:09:52 10° ENE
Cosmos 1869 Rocket 4.2 01:03:13 10° NNW 01:07:39 61° W 01:12:05 10° S
Ariane Rocket 3.1 01:02:47 10° SE 01:07:46 58° ENE 01:12:45 10° NNW
PAYLOAD A 4.2 01:02:58 10° SSE 01:07:49 77° WSW 01:12:53 10° NNW
ERS-2 3.1 01:05:23 10° ESE 01:08:33 27° NE 01:11:43 10° N
Cosmos 2221 4.2 01:05:12 10° WSW 01:09:00 28° NW 01:12:50 10° N
Cosmos 2100 Rocket 4.2 01:03:27 10° S 01:09:35 57° E 01:15:47 10° NNE
Cosmos 1151 Rocket 3.1 01:05:36 10° SSW 01:09:58 83° WNW 01:14:18 10° NNE
H-2A R/B 4.5 01:08:09 10° ENE 01:10:15 14° NE 01:12:20 10° N
Cosmos 676 Rocket 4.2 01:05:24 10° SSW 01:10:35 58° ESE 01:15:45 10° NE
Cosmos 1633 3.4 01:10:13 10° N 01:13:28 29° ENE 01:16:43 10° ESE
AQUARIUS 4.3 01:10:10 10° SE 01:14:32 52° ENE 01:18:56 10° NNW
Resurs 01 Rocket 3.4 01:13:51 11° NE 01:15:40 14° NNE 01:17:57 10° N
Cosmos 1408 4.2 01:12:13 10° NNW 01:15:41 38° W 01:19:06 10° SSW
ALOS 3.1 01:14:18 10° ESE 01:18:19 29° NE 01:22:20 10° N
Cosmos 1782 Rocket 4.1 01:15:26 10° N 01:19:26 34° ENE 01:23:26 10° SE
Cosmos 1300 4.4 01:16:34 10° WSW 01:19:59 30° WNW 01:23:26 10° N
SJ-12 3.9 01:17:06 10° SSE 01:21:16 80° ENE 01:25:27 10° NNW
SL-16 R/B 2.8 01:16:23 10° NNE 01:22:40 77° WNW 01:28:55 10° SSW
Iridium 2 3.8 01:19:45 10° SSW 01:23:37 79° W 01:27:30 10° N
NOSS 3-2 (C) 4.3 01:18:55 10° SSW 01:24:46 42° SE 01:30:38 13° ENE
Cosmos 1816 Rocket 4.4 01:18:44 10° NNW 01:24:54 75° ENE 01:31:03 10° SSE
SMAP 3.1 01:20:46 10° SE 01:25:22 62° ENE 01:30:00 10° NNW
Cosmos 614 Rocket 4.2 01:20:49 10° SSW 01:25:56 56° ESE 01:30:49 11° NE
Cosmos 1802 Rocket 4.1 01:21:03 10° S 01:27:03 58° E 01:33:05 10° NNE
Cosmos 1844 Rocket 3.6 01:23:28 10° S 01:28:21 31° ESE 01:32:29 13° NE
Aureole 3 3.8 01:24:24 10° NNW 01:28:28 82° WSW 01:33:42 10° S
Iridium 43 4.2 01:26:39 10° SSW 01:29:30 65° W 01:32:07 10° N
USA 161 2.3 01:30:25 17° ESE 01:30:25 17° ESE 01:31:35 10° SE
CZ-4C R/B 3.0 01:24:03 10° WNW 01:30:25 73° SSW 01:37:50 10° ESE
NOSS 3-2 (A) 4.1 01:26:24 10° SSW 01:32:27 50° SE 01:38:20 14° ENE
Cosmos 1346 3.5 01:30:40 10° SSE 01:32:35 24° E 01:33:11 22° ENE
Cosmos 2082 4.3 01:27:57 10° W 01:33:27 47° NNW 01:38:08 14° NE
SJ-6B 4.4 01:32:37 15° ENE 01:34:13 18° NE 01:37:04 10° N
Cosmos 1680 Rocket 4.3 01:31:10 10° NW 01:35:54 33° NNE 01:39:41 15° ENE
IDEFIX/ARIANE 42P 3.4 01:31:58 10° S 01:37:06 56° WSW 01:42:15 10° NNW
Cosmos 2219 3.8 01:32:47 10° WNW 01:38:10 41° N 01:42:26 16° ENE
Cosmos 1437 Rocket 4.2 01:35:18 10° N 01:38:18 20° NE 01:39:41 17° ENE
YAOGAN 1 2.7 01:34:57 10° SE 01:39:09 51° ENE 01:43:23 10° NNW
Cosmos 1140 Rocket 3.5 01:34:47 10° SSW 01:39:57 69° ESE 01:44:37 13° NE
Cosmos 724 4.4 01:36:42 10° SW 01:42:37 72° SSE 01:47:19 16° ENE
Cosmos 1869 3.3 01:39:13 10° SSW 01:43:11 88° WNW 01:47:12 10° NNE
CENTAUR R/B 3.6 01:38:44 10° S 01:44:20 32° SE 01:49:07 16° ENE
Cosmos 1725 Rocket 4.2 01:39:17 10° SSE 01:45:20 53° E 01:51:23 10° NNE
FENGYUN 3A 4.0 01:41:09 10° SE 01:46:15 44° NE 01:51:22 10° NNW
Cosmos 1833 Rocket 2.9 01:40:43 10° NW 01:46:22 75° SW 01:51:59 10° SE
Cosmos 1707 Rocket 3.5 01:43:05 10° S 01:47:31 74° ESE 01:51:58 10° NNE
Cosmos 2346 Rocket 4.4 01:43:27 10° NNW 01:49:37 85° ENE 01:55:49 10° SSE
Cosmos 1538 Rocket 4.3 01:44:47 10° NW 01:49:55 49° NE 01:55:06 10° ESE
MSX 4.4 01:44:22 10° S 01:50:07 63° WSW 01:55:54 10° NNW
CSL-04 Debris 4.2 01:45:49 10° SSE 01:51:15 85° WSW 01:56:42 10° NNW
Okean 1 Rocket 4.4 01:48:02 10° N 01:51:16 20° NE 01:52:05 19° ENE
SPOT 3 Rocket 3.7 01:46:22 10° SE 01:51:25 51° ENE 01:56:28 10° NNW
Cosmos 2151 Rocket 4.4 01:47:34 10° N 01:51:29 30° NE 01:55:23 10° ESE
MOZ.5/SAFIR/RUBIN 5/SL-8 4.3 01:47:28 10° NNE 01:52:05 58° WNW 01:56:42 10° SW
Nadezhda 4 Rocket 4.4 01:46:30 10° NNW 01:52:16 39° NE 01:57:58 10° SE
Meteor 1-14 Rocket 4.3 01:47:49 10° NNW 01:53:38 89° WSW 01:59:16 10° SSE
Tsikada Rocket 4.2 01:47:48 10° NNW 01:54:00 77° W 02:00:09 10° S
Cosmos 1607 4.1 01:50:24 10° W 01:56:52 83° N 02:01:54 18° E
Meteor 1-28 Rocket 4.3 01:57:15 22° ENE 01:57:52 23° E 02:00:52 10° SE
DNEPR-1 R/B 4.4 01:57:14 10° SSW 02:01:04 34° SE 02:03:14 21° E
Terra 4.0 02:01:04 10° N 02:01:06 10° N 02:01:09 10° N
Cosmos 1833 4.5 01:57:34 10° NW 02:03:01 49° NNE 02:06:50 19° E
Cosmos 1954 Rocket 4.0 01:57:46 10° SW 02:03:02 88° NW 02:07:22 15° NE
Cosmos 1346 Rocket 3.1 01:59:44 10° SSW 02:03:39 65° WNW 02:07:38 10° NNE
Cosmos 2227 Rocket 2.9 01:58:50 10° W 02:04:15 43° N 02:07:57 19° NE
Cosmos 1844 4.3 01:59:02 10° S 02:04:24 40° ESE 02:07:57 20° ENE
Okean 2 Rocket 3.3 02:00:24 10° NNW 02:04:51 50° ENE 02:09:17 10° SE
Cosmos 2263 Rocket 2.2 01:59:13 10° SW 02:04:52 84° NW 02:09:12 18° NE
Cosmos 2016 Rocket 4.0 01:58:39 10° S 02:04:56 79° ESE 02:11:11 10° NNE
Timation 2 Rocket 4.2 01:58:26 10° NW 02:05:23 90° NNW 02:12:08 10° SE
Cosmos 405 3.3 02:02:34 10° NNW 02:06:03 43° ENE 02:09:32 10° SE
Cosmos 44 Rocket 4.4 02:01:58 10° WNW 02:06:33 45° SW 02:11:13 10° SSE
Cosmos 2061 Rocket 4.1 02:00:13 10° SSW 02:06:36 90° E 02:13:05 10° NNE
CZ-2C R/B 3.7 02:02:02 10° S 02:06:57 46° W 02:11:58 10° NNW
H-2A R/B 3.8 02:06:31 14° NE 02:07:39 15° NNE 02:10:24 10° NNW
Cosmos 2278 Rocket 3.2 02:03:55 10° SSE 02:08:38 27° ESE 02:10:49 21° ENE
CORIOLIS 4.3 02:04:42 10° SSE 02:10:10 81° WSW 02:15:40 10° NNW
Cosmos 1092 Rocket 4.4 02:04:38 10° NNW 02:10:23 39° NE 02:16:07 10° ESE
Meteor 1-11 Rocket 3.9 02:04:34 10° NNW 02:10:26 55° ENE 02:16:09 10° SE
SL-27 R/B 3.9 02:09:13 10° NW 02:12:21 38° WSW 02:15:30 10° S
Cosmos 1908 Rocket 3.6 02:08:31 10° NNW 02:12:55 82° WSW 02:17:16 10° S
Cosmos 1733 Rocket 4.1 02:08:40 10° NNW 02:12:58 48° W 02:17:14 10° S
Cosmos 292 Rocket 3.8 02:08:15 10° NW 02:13:04 83° SW 02:17:50 10° SSE
Cosmos 407 Rocket 3.9 02:09:26 10° WSW 02:14:32 59° NW 02:18:35 16° NE
Cosmos 1190 Rocket 4.5 02:09:48 10° WSW 02:15:03 58° NW 02:19:15 16° NE
Cosmos 1606 3.9 02:13:09 10° SE 02:15:32 23° ESE 02:15:32 23° ESE
Cosmos 220 Rocket 4.1 02:12:05 10° SW 02:16:32 77° NW 02:19:36 20° NE
NOAA 12 4.1 02:12:50 10° SE 02:18:05 63° ENE 02:23:21 10° NNW
Cosmos 2285 Rocket 4.2 02:11:56 10° NW 02:18:07 52° NE 02:22:45 18° ESE
COSMOS 2487 2.3 02:15:32 10° NW 02:19:06 75° NE 02:22:20 12° SE
Meteor 1-26 Rocket 4.3 02:14:47 10° S 02:20:09 54° E 02:25:33 10° NNE
IRS-1A Rocket 4.5 02:16:38 10° SSE 02:22:24 78° WSW 02:28:05 10° NNW
Cosmos 1536 3.4 02:18:56 10° N 02:22:43 35° ENE 02:23:54 29° E
Lacrosse 5 2.9 02:19:25 10° SW 02:24:00 35° SSE 02:26:50 20° ESE
Cosmos 1484 Rocket 3.6 02:20:21 10° S 02:24:14 56° WSW 02:28:11 10° NNW
Envisat 3.8 02:22:54 26° ENE 02:24:20 30° NE 02:28:43 10° NNW
Cosmos 1933 3.2 02:20:55 10° SSW 02:24:58 86° ESE 02:28:35 13° NNE
Cosmos 2173 Rocket 4.3 02:19:43 10° SSW 02:25:51 70° WNW 02:32:06 10° NNE
MONITOR-E 4.0 02:23:31 10° SSE 02:26:35 68° ENE 02:29:38 10° NNW
Cosmos 540 Rocket 4.2 02:21:36 10° NW 02:26:42 57° WSW 02:31:46 10° SSE
CZ-4 R/B 1.7 02:23:19 10° S 02:27:08 64° WSW 02:31:00 10° NNW
Intercosmos 25 4.4 02:22:38 10° SSE 02:27:49 35° E 02:29:01 29° ENE
Aureole 1 Rocket 4.0 02:25:15 10° NNW 02:27:44 21° NNE 02:27:44 21° NNE
APEX 3.8 02:25:17 10° NW 02:29:20 56° NNE 02:31:49 28° E
ATLAS 3B R/B 2.7 02:23:29 10° WSW 02:30:38 83° SSE 02:34:49 26° E
Cosmos 773 Rocket 4.0 02:25:56 10° NW 02:31:05 63° NE 02:34:52 18° ESE
Meteor 2-10 Rocket 3.7 02:25:53 10° SSW 02:31:19 83° WNW 02:37:00 10° NNE
Cosmos 1602 3.6 02:28:25 10° NNW 02:32:16 66° ENE 02:36:07 10° SSE
Cosmos 1340 2.6 02:28:34 10° SSW 02:32:22 90° ESE 02:34:58 20° NNE
Cosmos 1459 Rocket 4.4 02:27:22 10° SSW 02:33:40 65° WNW 02:39:53 10° NNE
Cosmos 1437 2.6 02:31:28 10° S 02:34:38 67° ESE 02:35:21 47° NE
Sich 1 Rocket 4.0 02:30:47 10° NNW 02:35:11 66° W 02:39:36 10° S
Cosmos 2297 Rocket 2.9 02:30:06 10° WNW 02:35:29 42° N 02:38:14 25° NE
Cosmos 2082 Rocket 3.3 02:31:17 10° NW 02:36:45 46° WSW 02:42:08 10° S
Cosmos 1862 Rocket 3.5 02:33:14 10° S 02:37:42 79° ESE 02:41:47 13° NNE
COSMOS 2455 3.3 02:32:33 10° SSW 02:38:09 42° SE 02:40:36 29° E
USA 238 DEB 3.7 02:31:45 10° WSW 02:38:45 81° SSE 02:42:54 27° E
USA 238 3.7 02:31:51 10° WSW 02:38:51 81° SSE 02:43:00 27° E
Cosmos 1455 4.4 02:36:35 10° WSW 02:39:35 22° NW 02:42:35 10° N
ERS-1 Rocket 4.5 02:39:59 19° NNE 02:39:59 19° NNE 02:43:27 10° N
Cosmos 1464 Rocket 4.2 02:34:29 10° SSE 02:40:12 43° E 02:46:01 10° NNE
Cosmos 2242 Rocket 3.6 02:37:02 10° SSW 02:41:34 84° WNW 02:45:57 11° NNE
ERS-2 2.5 02:38:20 10° S 02:42:00 67° WSW 02:45:42 10° NNW
MOS 1 4.4 02:37:32 10° SSE 02:43:16 79° WSW 02:49:01 10° NNW
METEOR-M 4.3 02:38:04 10° SSE 02:43:25 76° WSW 02:48:49 10° NNW
H-2A R/B 2.9 02:43:16 44° E 02:43:47 47° ENE 02:47:27 10° N
ATLAS CENTAUR R/B 1.0 02:41:30 10° W 02:45:13 80° N 02:46:07 50° E
Ariane Rocket 4.3 02:42:08 10° S 02:46:58 42° W 02:51:49 10° NNW
Meteor 2-20 Rocket 4.3 02:41:16 10° NNW 02:47:24 68° ENE 02:53:28 10° SSE
CZ-2D R/B 4.5 02:48:34 27° NNE 02:48:34 27° NNE 02:50:55 10° N
Okean 1-7 3.4 02:43:43 10° SSE 02:47:51 40° E 02:47:58 40° E
Cosmos 1633 3.3 02:45:03 10° NNW 02:48:40 55° W 02:52:16 10° S
Resurs 01 Rocket 2.4 02:51:27 33° NE 02:51:27 33° NE 02:55:07 10° N
Cosmos 1782 3.1 02:47:15 10° S 02:50:52 44° ESE 02:50:52 44° ESE
Cosmos 2026 Rocket 4.3 02:45:16 10° NNW 02:51:18 45° ENE 02:54:37 25° ESE
Cosmos 1850 Rocket 4.0 02:46:10 10° SW 02:51:23 80° NW 02:54:30 25° NE
Cosmos 2233 Rocket 3.9 02:46:06 10° S 02:52:20 81° ESE 02:58:33 10° NNE
Meteor 2-6 Rocket 4.5 02:48:01 10° SSE 02:53:13 43° E 02:56:24 22° NE
deb Kosmos-1763 4.5 02:50:04 10° NW 02:53:35 45° NNE 02:53:35 45° NNE
ALOS 2.2 02:50:42 10° SSE 02:55:23 87° WSW 03:00:07 10° NNW
Cosmos 1782 Rocket 4.1 02:53:19 10° NNW 02:57:36 58° W 03:01:53 10° S
USA 116 4.0 02:55:53 24° NNE 02:58:36 60° ESE 03:02:51 10° S
USA 161 3.8 03:00:40 16° WSW 03:00:40 16° WSW 03:01:22 10° WSW
COSMO-SKYMED 1 3.2 03:05:00 38° SE 03:05:00 38° SE 03:08:14 10° S
SL-16 R/B 4.0 03:00:13 10° NNE 03:05:41 33° NW 03:11:07 10° W
Cosmos 1486 Rocket 4.1 03:00:39 10° S 03:05:43 52° ESE 03:06:53 43° ENE
Meteor 1-4 Rocket 4.3 03:02:39 10° N 03:04:25 23° N 03:04:25 23° N
SJ-6B 2.9 03:08:17 59° ENE 03:08:17 59° ENE 03:12:18 10° NNW
Cosmos 1741 Rocket 4.2 03:03:01 10° SW 03:08:22 70° NW 03:11:18 27° NNE
Resurs 1-3 4.3 03:11:41 36° NNE 03:11:41 36° NNE 03:14:57 10° NNW
Cosmos 1844 Rocket 2.6 03:06:06 10° SW 03:11:46 87° SE 03:14:08 37° NE
Meteor 1-5 Rocket 4.0 03:07:45 10° NNW 03:13:13 82° ENE 03:18:34 10° SSE
FengYun 1-2 T 4.1 03:08:06 10° SSE 03:13:41 84° ENE 03:19:20 10° NNW
NOSS 3-2 (C) 3.7 03:08:39 10° WSW 03:15:07 76° SSE 03:18:03 38° E
Cosmos 1437 Rocket 2.6 03:11:18 10° NNW 03:15:08 72° NE 03:15:08 72° NE
YAOGAN 1 4.0 03:11:21 10° SSW 03:15:26 39° W 03:19:32 10° NNW
CZ-4C R/B 3.9 03:12:24 10° WNW 03:18:33 40° SW 03:25:30 10° SSE
Cosmos 2082 4.3 03:13:13 10° WNW 03:18:37 42° N 03:20:01 36° NE
Cosmos 1680 Rocket 3.4 03:13:38 10° NW 03:18:52 66° NE 03:20:01 51° ESE
Cosmos 1513 Rocket 4.4 03:15:37 10° S 03:21:46 63° E 03:27:50 10° NNE
Cosmos 1140 Rocket 4.3 03:17:05 10° WSW 03:22:05 45° NW 03:24:37 26° NNE
NOSS 3-2 (A) 3.6 03:16:28 10° WSW 03:22:59 82° SSE 03:25:44 41° E
Cosmos 2219 3.4 03:17:44 10° NW 03:23:19 53° NNE 03:24:22 47° ENE
Spot 2 Rocket 3.6 03:24:22 51° ENE 03:24:29 52° ENE 03:29:28 10° NNW
Meteor 1-27 Rocket 3.9 03:20:38 10° S 03:26:19 50° E 03:26:57 48° ENE
FENGYUN 3A 4.1 03:21:05 10° S 03:26:27 61° WSW 03:31:50 10° NNW
Cosmos 724 4.3 03:22:46 10° W 03:28:42 77° N 03:30:17 50° ENE
Cosmos 2151 Rocket 3.8 03:25:36 10° NNW 03:30:00 71° W 03:34:25 10° S
Okean 1 Rocket 3.3 03:25:39 10° NNW 03:29:17 54° NNE 03:29:17 54° NNE
SPOT 3 Rocket 4.4 03:25:50 10° S 03:30:55 50° W 03:36:00 10° NNW
Meteor 1-28 Rocket 3.3 03:32:14 69° NW 03:32:20 70° WNW 03:36:02 10° SSW
Cosmos 1538 Rocket 4.4 03:27:06 10° NW 03:32:20 64° WSW 03:35:59 20° SSE
CENTAUR R/B 2.8 03:27:30 10° SW 03:34:04 66° SSE 03:36:18 45° E
Cosmos 1891 Rocket 4.3 03:29:32 10° S 03:35:36 71° E 03:41:38 10° NNE
Meteor 1-10 Rocket 4.1 03:30:27 10° S 03:36:12 74° ESE 03:40:38 18° NNE
Terra 3.9 03:38:34 15° NNE 03:38:34 15° NNE 03:40:06 10° N
Cosmos 1703 Rocket 3.6 03:33:07 10° SSW 03:37:36 78° WNW 03:38:57 44° N
Cosmos 2221 Rocket 3.6 03:33:24 10° S 03:37:17 67° S 03:37:17 67° S
Nadezhda 4 Rocket 4.1 03:31:56 10° NNW 03:38:05 73° W 03:44:11 10° S
Meteor 1-12 Rocket 4.3 03:32:45 10° NNW 03:38:24 54° ENE 03:38:25 54° ENE
Cosmos 1300 Rocket 3.5 03:34:27 10° NNW 03:38:48 83° WSW 03:39:10 73° S
Cosmos 923 Rocket 3.9 03:35:53 10° NW 03:41:11 88° SW 03:42:16 58° SSE
CZ-2C R/B 3.7 03:42:10 48° N 03:43:23 76° WNW 03:47:53 10° SSW
Cosmos 1607 3.9 03:37:55 10° WNW 03:44:25 90° NNE 03:46:02 55° ESE
H-2A R/B 3.5 03:47:09 25° NNE 03:47:09 25° NNE 03:50:06 10° NNW
Cosmos 1833 4.1 03:42:06 10° NW 03:47:45 87° SW 03:48:50 60° SE
DNEPR-1 R/B 3.6 03:43:45 10° WSW 03:47:33 71° SW 03:47:33 71° SW
Cosmos 1844 3.7 03:42:27 10° SW 03:48:17 81° NW 03:49:51 51° NE
Cosmos 2297 4.3 03:43:27 10° SSW 03:47:43 42° SSE 03:47:43 42° SSE
Cosmos 2227 Rocket 2.6 03:43:50 10° NW 03:49:22 48° NNE 03:49:46 47° NNE
Cosmos 2263 Rocket 2.9 03:43:58 10° W 03:49:25 46° NNW 03:50:52 38° NNE
Cosmos 1072 Rocket 4.5 03:44:46 10° SSW 03:51:06 85° WNW 03:57:33 10° NNE
Cosmos 1606 3.8 03:48:02 10° SSW 03:50:38 40° SW 03:50:38 40° SW
Cosmos 2278 Rocket 2.1 03:46:23 10° SW 03:52:05 78° SE 03:52:40 70° ENE
SKYMED 2 4.2 03:53:35 46° SSW 03:53:35 46° SSW 03:56:39 10° SSW
Cosmos 1932 4.4 03:48:24 10° WNW 03:54:58 88° N 03:56:10 62° ESE
Cosmos 1092 Rocket 4.1 03:50:09 10° NNW 03:56:19 75° W 04:02:27 10° S
Cosmos 2034 Rocket 3.9 03:51:38 10° S 03:58:01 83° ESE 04:04:23 10° NNE
Cosmos 2112 Rocket 3.8 03:54:00 10° NW 03:59:15 90° SSW 03:59:22 86° SE
Cosmos 1536 3.6 03:55:24 10° NNW 03:59:22 50° W 03:59:41 49° WSW
ARGOS 4.2 04:01:00 31° NNE 04:01:00 31° NNE 04:04:26 10° NNW
Envisat 2.9 04:03:06 84° N 04:03:06 84° N 04:08:04 10° NNW
Cosmos 1627 Rocket 4.5 03:56:38 10° NNW 04:03:04 87° WSW 04:06:19 32° S
Cosmos 2285 Rocket 4.2 03:59:00 10° NW 04:05:17 70° WSW 04:07:38 40° S
Lacrosse 5 2.8 04:01:37 10° WSW 04:06:01 37° SSW 04:06:01 37° SSW
APEX 4.2 04:07:22 10° NW 04:11:44 61° SW 04:11:50 60° SW
ERS-1 Rocket 4.4 04:19:59 28° N 04:19:59 28° N 04:22:37 10° NNW
H-2A R/B 4.3 04:18:28 34° W 04:18:28 34° W 04:21:43 10° NNW
Cosmos 2297 Rocket 2.6 04:14:57 10° NW 04:20:02 51° N 04:20:02 51° N
ATLAS 3B R/B 2.5 04:14:24 10° W 04:21:27 87° S 04:22:04 76° ESE
COSMOS 2455 2.7 04:17:43 10° WSW 04:23:44 89° WSW 04:23:44 89° WSW
ATLAS CENTAUR R/B 3.1 04:20:29 10° WNW 04:22:22 28° W 04:22:22 28° W
Okean 1-7 4.1 04:21:10 10° SW 04:24:53 45° W 04:24:53 45° W
Cosmos 1655 Rocket 3.9 04:19:09 10° NNW 04:25:27 88° WSW 04:26:02 76° S
Cosmos 1464 Rocket 4.3 04:19:23 10° SSW 04:25:30 64° WNW 04:31:42 10° NNE
Timation 1 Rocket 4.3 04:21:08 10° WSW 04:27:11 79° NW 04:27:26 78° N
Resurs 01 Rocket 2.8 04:29:01 38° NW 04:29:01 38° NW 04:31:52 10° NNW
USA 238 DEB 3.6 04:22:45 10° W 04:29:47 84° S 04:30:20 77° SE
USA 238 3.6 04:22:51 10° W 04:29:54 84° S 04:30:26 77° SE
Cosmos 2266 Rocket 4.4 04:27:40 10° NNW 04:32:18 50° N 04:32:18 50° N
Cosmos 2026 Rocket 4.3 04:30:43 10° NNW 04:36:59 66° W 04:39:13 41° SSW
COSMO-SKYMED 1 4.4 04:42:13 27° WSW 04:42:13 27° WSW 04:44:28 10° SW
Cosmos 1844 Rocket 3.4 04:50:41 10° W 04:55:48 48° NNW 04:55:48 48° NNW
NOSS 3-2 (C) 3.8 04:59:22 10° W 05:05:30 76° W 05:05:30 76° W
Cosmos 2219 4.0 05:02:10 10° NW 05:06:16 49° WNW 05:06:16 49° WNW
Meteor 1-27 Rocket 4.4 05:03:53 10° SW 05:17:35 - NNE 05:09:28 55° WNW
Terra 4.3 05:17:27 15° N 05:17:27 15° N 05:18:22 10° NNW
NOSS 3-2 (A) 3.9 05:07:11 10° W 05:13:07 71° W 05:13:07 71° W
H-2A R/B 3.9 05:27:46 25° NNW 05:27:46 25° NNW 05:29:52 10° NNW
CENTAUR R/B 3.0 05:17:46 10° W 05:23:29 66° W 05:23:29 66° W
Cosmos 2227 Rocket 3.5 05:28:15 10° NW 05:31:35 37° NW 05:31:35 37° NW
Cosmos 2263 Rocket 3.6 05:29:01 10° WNW 05:32:34 33° NNW 05:32:34 33° NNW
Cosmos 2278 Rocket 3.5 05:30:59 10° W 05:34:32 35° WNW 05:34:32 35° WNW
Lacrosse 5 4.5 05:44:20 10° W 05:45:13 14° WSW 05:45:13 14° WSW
Cosmos 2297 Rocket 4.0 05:59:16 10° NW 06:01:50 28° NW 06:01:50 28° NW
ATLAS 3B R/B 3.8 06:05:13 10° WNW 06:09:19 36° W 06:09:19 36° W
ADEOS Rocket 4.4 10:43:18 10° NNE 10:48:01 42° NNE 10:48:01 42° NNE
CZ-2D R/B 4.5 10:50:39 10° NNE 10:52:26 20° NE 10:52:26 20° NE
ATLAS 2AS CENTAUR R/B 3.9 11:00:24 42° E 11:00:24 42° E 11:05:15 10° E
ADEOS II 4.4 11:11:17 10° NE 11:14:15 19° ENE 11:14:15 19° ENE
Cosmos 2344 4.1 11:20:18 62° ESE 11:20:18 62° ESE 11:28:58 10° ENE
Cosmos 2360 Rocket 4.0 11:33:05 28° NE 11:33:05 28° NE 11:35:42 10° NE
Cosmos 1980 Rocket 4.0 11:34:51 28° NE 11:34:51 28° NE 11:37:37 10° NE
Cosmos 2237 Rocket 4.1 11:39:14 25° E 11:39:14 25° E 11:42:48 10° NE
SL-16 R/B 3.8 11:43:44 30° NE 11:43:44 30° NE 11:46:35 10° NE
Resurs 1-4 Rocket 4.1 11:42:55 10° NNE 11:44:59 24° NNE 11:44:59 24° NNE
Cosmos 2333 Rocket 3.7 11:55:28 33° E 11:55:28 33° E 11:59:17 10° NE
